Time,TemperatureF,DewpointF,PressureIn,WindDirection,WindDirectionDegrees,WindSpeedMPH,WindSpeedGustMPH,Humidity,HourlyPrecipIn,Conditions,Clouds,dailyrainin,SoftwareType,DateUTC
2013-03-07 00:00:00,38.7,30.4,29.96,NE,49,8.0,19.0,72,0.00,,,0.01,meteohub,2013-03-07 05:00:00,
2013-03-07 00:05:00,38.8,29.8,29.96,NNE,22,6.0,16.0,70,0.00,,,0.00,meteohub,2013-03-07 05:05:00,
2013-03-07 00:10:00,39.0,29.7,29.96,WNW,297,3.0,19.0,69,0.00,,,0.00,meteohub,2013-03-07 05:10:00,
2013-03-07 00:15:00,39.0,29.7,29.96,NE,47,7.0,19.0,69,0.00,,,0.00,meteohub,2013-03-07 05:15:00,
2013-03-07 00:20:00,39.2,29.8,29.96,ENE,57,6.0,19.0,69,0.00,,,0.00,meteohub,2013-03-07 05:20:00,
2013-03-07 00:25:00,39.2,29.5,29.96,NE,37,3.0,20.0,68,0.00,,,0.00,meteohub,2013-03-07 05:25:00,
2013-03-07 00:30:00,39.2,29.5,29.96,ENE,67,3.0,20.0,68,0.00,,,0.00,meteohub,2013-03-07 05:30:00,
2013-03-07 00:35:00,39.2,29.1,29.96,ENE,67,15.0,20.0,67,0.00,,,0.00,meteohub,2013-03-07 05:35:00,
2013-03-07 00:40:00,39.2,29.5,29.96,North,9,3.0,18.0,68,0.00,,,0.00,meteohub,2013-03-07 05:40:00,
2013-03-07 00:45:00,39.2,29.1,29.96,ENE,64,10.0,18.0,67,0.00,,,0.00,meteohub,2013-03-07 05:45:00,
2013-03-07 00:50:00,39.2,29.1,29.96,NE,37,8.0,21.0,67,0.00,,,0.00,meteohub,2013-03-07 05:50:00,
2013-03-07 00:55:00,39.0,28.9,29.97,ENE,58,11.0,21.0,67,0.00,,,0.00,meteohub,2013-03-07 05:55:00,
2013-03-07 01:00:00,39.0,28.9,29.97,NE,44,7.0,21.0,67,0.00,,,0.00,meteohub,2013-03-07 06:00:00,
2013-03-07 01:05:00,39.0,28.9,29.97,NNE,32,11.0,21.0,67,0.00,,,0.00,meteohub,2013-03-07 06:05:00,
2013-03-07 01:10:00,39.0,28.9,29.97,ENE,65,11.0,18.0,67,0.00,,,0.00,meteohub,2013-03-07 06:10:00,
2013-03-07 01:15:00,39.0,28.9,29.97,NE,40,9.0,16.0,67,0.00,,,0.00,meteohub,2013-03-07 06:15:00,
2013-03-07 01:20:00,39.0,28.9,29.97,North,6,15.0,16.0,67,0.00,,,0.00,meteohub,2013-03-07 06:20:00,
2013-03-07 01:25:00,39.0,28.9,29.97,NW,304,5.0,16.0,67,0.00,,,0.00,meteohub,2013-03-07 06:25:00,
2013-03-07 01:30:00,39.0,28.9,29.97,East,89,5.0,16.0,67,0.00,,,0.00,meteohub,2013-03-07 06:30:00,
2013-03-07 01:35:00,39.0,28.9,29.98,East,90,5.0,15.0,67,0.00,,,0.00,meteohub,2013-03-07 06:35:00,
2013-03-07 01:40:00,39.0,28.9,29.98,ENE,61,7.0,23.0,67,0.00,,,0.00,meteohub,2013-03-07 06:40:00,
2013-03-07 01:45:00,39.0,28.9,29.97,NE,36,5.0,23.0,67,0.00,,,0.00,meteohub,2013-03-07 06:45:00,
2013-03-07 01:50:00,39.0,28.9,29.97,NNE,23,6.0,23.0,67,0.00,,,0.00,meteohub,2013-03-07 06:50:00,
2013-03-07 01:55:00,39.0,28.9,29.97,NNE,18,5.0,17.0,67,0.00,,,0.00,meteohub,2013-03-07 06:55:00,
2013-03-07 02:01:00,39.0,28.9,29.97,NE,53,12.0,20.0,67,0.00,,,0.00,meteohub,2013-03-07 07:01:00,
2013-03-07 02:06:00,38.8,28.8,29.97,East,85,6.0,20.0,67,0.00,,,0.00,meteohub,2013-03-07 07:06:00,
2013-03-07 02:11:00,38.8,28.8,29.97,ENE,70,16.0,20.0,67,0.00,,,0.00,meteohub,2013-03-07 07:11:00,
2013-03-07 02:16:00,38.8,29.1,29.97,NE,39,6.0,19.0,68,0.00,,,0.00,meteohub,2013-03-07 07:16:00,
2013-03-07 02:21:00,38.8,29.1,29.97,ENE,63,11.0,23.0,68,0.00,,,0.00,meteohub,2013-03-07 07:21:00,
2013-03-07 02:26:00,38.8,29.1,29.97,NNE,19,2.0,23.0,68,0.00,,,0.00,meteohub,2013-03-07 07:26:00,
2013-03-07 02:31:00,38.7,29.3,29.96,East,89,6.0,23.0,69,0.00,,,0.00,meteohub,2013-03-07 07:31:00,
2013-03-07 02:36:00,38.7,29.3,29.96,NE,34,3.0,15.0,69,0.00,,,0.00,meteohub,2013-03-07 07:36:00,
2013-03-07 02:41:00,38.7,29.3,29.96,East,79,9.0,15.0,69,0.00,,,0.00,meteohub,2013-03-07 07:41:00,
2013-03-07 02:46:00,38.7,29.3,29.96,East,82,9.0,15.0,69,0.00,,,0.00,meteohub,2013-03-07 07:46:00,
2013-03-07 02:51:00,38.7,29.3,29.97,NNE,32,4.0,25.0,69,0.00,,,0.00,meteohub,2013-03-07 07:51:00,
2013-03-07 02:56:00,38.5,29.1,29.97,North,9,2.0,25.0,69,0.00,,,0.00,meteohub,2013-03-07 07:56:00,
2013-03-07 03:01:00,38.5,29.5,29.97,ENE,62,5.0,25.0,70,0.00,,,0.00,meteohub,2013-03-07 08:01:00,
2013-03-07 03:06:00,38.5,29.5,29.97,NE,38,5.0,16.0,70,0.00,,,0.00,meteohub,2013-03-07 08:06:00,
2013-03-07 03:11:00,38.1,29.1,29.97,NE,47,11.0,13.0,70,0.00,,,0.00,meteohub,2013-03-07 08:11:00,
2013-03-07 03:16:00,38.1,29.5,29.97,NE,50,8.0,14.0,71,0.00,,,0.00,meteohub,2013-03-07 08:16:00,
2013-03-07 03:21:00,37.9,29.3,29.98,NE,46,7.0,14.0,71,0.00,,,0.00,meteohub,2013-03-07 08:21:00,
2013-03-07 03:26:00,37.9,29.7,29.98,ENE,57,4.0,14.0,72,0.00,,,0.00,meteohub,2013-03-07 08:26:00,
2013-03-07 03:31:00,37.9,29.7,29.98,ENE,63,9.0,14.0,72,0.00,,,0.00,meteohub,2013-03-07 08:31:00,
2013-03-07 03:36:00,37.8,29.5,29.98,NNE,30,2.0,20.0,72,0.00,,,0.00,meteohub,2013-03-07 08:36:00,
2013-03-07 03:41:00,37.8,29.5,29.98,NNE,18,7.0,20.0,72,0.00,,,0.00,meteohub,2013-03-07 08:41:00,
2013-03-07 03:46:00,37.8,29.5,29.98,ENE,64,4.0,20.0,72,0.00,,,0.00,meteohub,2013-03-07 08:46:00,
2013-03-07 03:51:00,37.8,29.5,29.99,NNW,331,2.0,16.0,72,0.00,,,0.00,meteohub,2013-03-07 08:51:00,
2013-03-07 03:56:00,37.8,29.5,29.99,NE,54,3.0,13.0,72,0.00,,,0.00,meteohub,2013-03-07 08:56:00,
2013-03-07 04:01:00,37.8,29.5,29.99,NNE,32,4.0,12.0,72,0.00,,,0.00,meteohub,2013-03-07 09:01:00,
2013-03-07 04:06:00,37.8,29.1,29.99,NNE,25,4.0,12.0,71,0.00,,,0.00,meteohub,2013-03-07 09:06:00,
2013-03-07 04:11:00,37.8,29.1,29.99,NE,46,3.0,12.0,71,0.00,,,0.00,meteohub,2013-03-07 09:11:00,
2013-03-07 04:16:00,37.8,29.1,29.99,ENE,63,5.0,12.0,71,0.00,,,0.00,meteohub,2013-03-07 09:16:00,
2013-03-07 04:21:00,37.8,29.1,30.00,NNE,15,4.0,10.0,71,0.00,,,0.00,meteohub,2013-03-07 09:21:00,
2013-03-07 04:26:00,37.8,29.1,30.00,NNE,31,6.0,11.0,71,0.00,,,0.00,meteohub,2013-03-07 09:26:00,
2013-03-07 04:31:00,37.8,29.1,30.00,NNW,344,4.0,11.0,71,0.00,,,0.00,meteohub,2013-03-07 09:31:00,
2013-03-07 04:36:00,37.8,28.9,30.00,NNE,31,5.0,11.0,70,0.00,,,0.00,meteohub,2013-03-07 09:36:00,
2013-03-07 04:41:00,37.8,28.9,30.00,ENE,61,5.0,17.0,70,0.00,,,0.00,meteohub,2013-03-07 09:41:00,
2013-03-07 04:46:00,37.8,28.9,30.00,NE,44,3.0,17.0,70,0.00,,,0.00,meteohub,2013-03-07 09:46:00,
2013-03-07 04:51:00,37.8,28.9,30.01,NNE,23,4.0,17.0,70,0.00,,,0.00,meteohub,2013-03-07 09:51:00,
2013-03-07 04:56:00,37.8,28.9,30.01,NNE,25,9.0,14.0,70,0.00,,,0.00,meteohub,2013-03-07 09:56:00,
2013-03-07 05:01:00,37.6,28.8,30.01,NE,53,8.0,13.0,70,0.00,,,0.00,meteohub,2013-03-07 10:01:00,
2013-03-07 05:06:00,37.6,28.8,30.01,NE,36,6.0,15.0,70,0.00,,,0.00,meteohub,2013-03-07 10:06:00,
2013-03-07 05:12:00,37.6,28.8,30.01,NE,43,10.0,15.0,70,0.00,,,0.00,meteohub,2013-03-07 10:12:00,
2013-03-07 05:17:00,37.4,28.9,30.01,NE,40,7.0,15.0,71,0.00,,,0.00,meteohub,2013-03-07 10:17:00,
2013-03-07 05:22:00,37.2,28.8,30.02,NE,47,11.0,14.0,71,0.00,,,0.00,meteohub,2013-03-07 10:22:00,
2013-03-07 05:27:00,37.2,28.8,30.02,NNE,26,6.0,20.0,71,0.00,,,0.00,meteohub,2013-03-07 10:27:00,
2013-03-07 05:32:00,37.0,28.9,30.02,NE,41,4.0,20.0,72,0.00,,,0.00,meteohub,2013-03-07 10:32:00,
2013-03-07 05:37:00,37.0,28.9,30.02,NNE,14,9.0,20.0,72,0.00,,,0.00,meteohub,2013-03-07 10:37:00,
2013-03-07 05:42:00,36.9,28.8,30.02,West,272,3.0,18.0,72,0.00,,,0.00,meteohub,2013-03-07 10:42:00,
2013-03-07 05:47:00,36.9,28.9,30.03,ENE,70,8.0,18.0,73,0.00,,,0.00,meteohub,2013-03-07 10:47:00,
2013-03-07 05:52:00,36.9,28.9,30.03,ENE,58,9.0,18.0,73,0.00,,,0.00,meteohub,2013-03-07 10:52:00,
2013-03-07 05:57:00,36.9,28.9,30.03,NE,49,5.0,13.0,73,0.00,,,0.00,meteohub,2013-03-07 10:57:00,
2013-03-07 06:02:00,36.7,28.8,30.02,NNE,25,7.0,13.0,73,0.00,,,0.00,meteohub,2013-03-07 11:02:00,
2013-03-07 06:07:00,36.7,28.8,30.02,NE,49,11.0,13.0,73,0.00,,,0.00,meteohub,2013-03-07 11:07:00,
2013-03-07 06:12:00,36.7,28.6,30.02,NE,38,5.0,16.0,72,0.00,,,0.00,meteohub,2013-03-07 11:12:00,
2013-03-07 06:17:00,36.7,28.8,30.02,ENE,65,4.0,16.0,73,0.00,,,0.00,meteohub,2013-03-07 11:17:00,
2013-03-07 06:22:00,36.7,28.8,30.02,NE,47,5.0,16.0,73,0.00,,,0.00,meteohub,2013-03-07 11:22:00,
2013-03-07 06:27:00,36.7,28.6,30.02,ENE,61,10.0,16.0,72,0.00,,,0.00,meteohub,2013-03-07 11:27:00,
2013-03-07 06:32:00,36.7,28.6,30.02,ENE,61,12.0,15.0,72,0.00,,,0.00,meteohub,2013-03-07 11:32:00,
2013-03-07 06:37:00,36.7,28.6,30.02,NNE,19,7.0,16.0,72,0.00,,,0.00,meteohub,2013-03-07 11:37:00,
2013-03-07 06:42:00,36.7,28.6,30.03,North,11,10.0,16.0,72,0.00,,,0.00,meteohub,2013-03-07 11:42:00,
2013-03-07 06:47:00,36.7,28.6,30.03,NE,55,5.0,16.0,72,0.00,,,0.00,meteohub,2013-03-07 11:47:00,
2013-03-07 06:52:00,36.7,28.6,30.03,NNE,22,5.0,14.0,72,0.00,,,0.00,meteohub,2013-03-07 11:52:00,
2013-03-07 06:57:00,36.7,28.6,30.03,NE,40,9.0,13.0,72,0.00,,,0.00,meteohub,2013-03-07 11:57:00,
2013-03-07 07:02:00,36.7,28.6,30.03,NE,41,6.0,13.0,72,0.00,,,0.00,meteohub,2013-03-07 12:02:00,
2013-03-07 07:07:00,36.7,28.6,30.03,ENE,57,14.0,19.0,72,0.00,,,0.00,meteohub,2013-03-07 12:07:00,
2013-03-07 07:12:00,36.7,28.6,30.03,NE,46,7.0,20.0,72,0.00,,,0.00,meteohub,2013-03-07 12:12:00,
2013-03-07 07:17:00,36.7,28.6,30.03,NE,34,6.0,20.0,72,0.00,,,0.00,meteohub,2013-03-07 12:17:00,
2013-03-07 07:22:00,36.7,28.2,30.04,ENE,67,9.0,20.0,71,0.00,,,0.00,meteohub,2013-03-07 12:22:00,
2013-03-07 07:27:00,36.9,28.4,30.04,ENE,57,7.0,14.0,71,0.00,,,0.00,meteohub,2013-03-07 12:27:00,
2013-03-07 07:32:00,36.9,28.4,30.04,NE,46,4.0,15.0,71,0.00,,,0.00,meteohub,2013-03-07 12:32:00,
2013-03-07 07:37:00,36.9,28.4,30.04,NNE,22,6.0,15.0,71,0.00,,,0.00,meteohub,2013-03-07 12:37:00,
2013-03-07 07:42:00,36.9,28.4,30.04,NE,46,7.0,15.0,71,0.00,,,0.00,meteohub,2013-03-07 12:42:00,
2013-03-07 07:47:00,36.9,28.4,30.05,NE,44,11.0,13.0,71,0.00,,,0.00,meteohub,2013-03-07 12:47:00,
2013-03-07 07:52:00,37.0,28.6,30.05,North,6,4.0,14.0,71,0.00,,,0.00,meteohub,2013-03-07 12:52:00,
2013-03-07 07:57:00,37.0,28.6,30.06,West,279,3.0,14.0,71,0.00,,,0.00,meteohub,2013-03-07 12:57:00,
2013-03-07 08:02:00,37.0,28.9,30.06,NNE,27,9.0,16.0,72,0.00,,,0.00,meteohub,2013-03-07 13:02:00,
2013-03-07 08:07:00,36.7,29.1,30.06,NE,34,9.0,16.0,74,0.00,,,0.00,meteohub,2013-03-07 13:07:00,
2013-03-07 08:12:00,36.5,28.8,30.06,ENE,63,9.0,16.0,73,0.00,,,0.00,meteohub,2013-03-07 13:12:00,
2013-03-07 08:17:00,36.7,29.1,30.06,NE,54,6.0,18.0,74,0.00,,,0.00,meteohub,2013-03-07 13:17:00,
2013-03-07 08:23:00,36.7,29.1,30.06,ENE,60,11.0,18.0,74,0.00,,,0.00,meteohub,2013-03-07 13:23:00,
2013-03-07 08:28:00,36.7,29.1,30.06,North,6,5.0,18.0,74,0.00,,,0.00,meteohub,2013-03-07 13:28:00,
2013-03-07 08:33:00,36.7,29.1,30.06,NNE,18,5.0,17.0,74,0.00,,,0.00,meteohub,2013-03-07 13:33:00,
2013-03-07 08:38:00,36.9,29.3,30.06,NNE,15,3.0,17.0,74,0.00,,,0.00,meteohub,2013-03-07 13:38:00,
2013-03-07 08:43:00,37.0,29.5,30.06,NE,38,5.0,14.0,74,0.00,,,0.00,meteohub,2013-03-07 13:43:00,
2013-03-07 08:48:00,37.0,29.5,30.06,NNE,26,12.0,14.0,74,0.00,,,0.00,meteohub,2013-03-07 13:48:00,
2013-03-07 08:53:00,36.9,29.7,30.06,ENE,58,7.0,17.0,75,0.00,,,0.00,meteohub,2013-03-07 13:53:00,
2013-03-07 08:58:00,36.7,29.8,30.06,NNE,30,9.0,20.0,76,0.00,,,0.00,meteohub,2013-03-07 13:58:00,
2013-03-07 09:03:00,36.9,30.4,30.06,ENE,60,4.0,20.0,77,0.00,,,0.00,meteohub,2013-03-07 14:03:00,
2013-03-07 09:08:00,36.9,30.4,30.06,NE,34,5.0,20.0,77,0.00,,,0.00,meteohub,2013-03-07 14:08:00,
2013-03-07 09:13:00,36.9,30.6,30.06,NNE,26,6.0,17.0,78,0.00,,,0.00,meteohub,2013-03-07 14:13:00,
2013-03-07 09:18:00,37.0,30.7,30.06,NE,51,6.0,15.0,78,0.00,,,0.00,meteohub,2013-03-07 14:18:00,
2013-03-07 09:23:00,36.9,30.6,30.07,NE,40,7.0,18.0,78,0.00,,,0.00,meteohub,2013-03-07 14:23:00,
2013-03-07 09:28:00,36.9,30.9,30.07,NE,44,2.0,18.0,79,0.00,,,0.00,meteohub,2013-03-07 14:28:00,
2013-03-07 09:33:00,36.9,30.9,30.06,ENE,57,7.0,18.0,79,0.00,,,0.00,meteohub,2013-03-07 14:33:00,
2013-03-07 09:38:00,37.0,30.7,30.07,North,6,8.0,14.0,78,0.00,,,0.00,meteohub,2013-03-07 14:38:00,
2013-03-07 09:43:00,37.2,30.7,30.07,ENE,71,8.0,15.0,77,0.00,,,0.00,meteohub,2013-03-07 14:43:00,
2013-03-07 09:48:00,37.4,30.9,30.07,North,355,4.0,19.0,77,0.00,,,0.00,meteohub,2013-03-07 14:48:00,
2013-03-07 09:53:00,37.8,30.6,30.07,NE,34,5.0,19.0,75,0.00,,,0.00,meteohub,2013-03-07 14:53:00,
2013-03-07 09:58:00,37.8,30.6,30.07,NE,34,12.0,19.0,75,0.00,,,0.00,meteohub,2013-03-07 14:58:00,
2013-03-07 10:03:00,37.9,30.7,30.07,ENE,58,6.0,13.0,75,0.00,,,0.00,meteohub,2013-03-07 15:03:00,
2013-03-07 10:08:00,37.9,30.4,30.08,ENE,67,5.0,16.0,74,0.00,,,0.00,meteohub,2013-03-07 15:08:00,
2013-03-07 10:13:00,38.1,30.6,30.08,NE,40,8.0,16.0,74,0.00,,,0.00,meteohub,2013-03-07 15:13:00,
2013-03-07 10:18:00,38.7,30.4,30.07,West,270,3.0,16.0,72,0.00,,,0.00,meteohub,2013-03-07 15:18:00,
2013-03-07 10:23:00,39.0,30.4,30.07,North,5,6.0,14.0,71,0.00,,,0.00,meteohub,2013-03-07 15:23:00,
2013-03-07 10:28:00,39.0,30.4,30.07,NE,55,12.0,13.0,71,0.00,,,0.00,meteohub,2013-03-07 15:28:00,
2013-03-07 10:33:00,39.2,30.2,30.07,ENE,57,8.0,14.0,70,0.00,,,0.00,meteohub,2013-03-07 15:33:00,
2013-03-07 10:39:00,39.2,30.2,30.08,North,6,7.0,14.0,70,0.00,,,0.00,meteohub,2013-03-07 15:39:00,
2013-03-07 10:44:00,39.4,30.0,30.08,NNE,15,8.0,14.0,69,0.00,,,0.00,meteohub,2013-03-07 15:44:00,
2013-03-07 10:49:00,39.4,30.4,30.08,NE,46,6.0,14.0,70,0.00,,,0.00,meteohub,2013-03-07 15:49:00,
2013-03-07 10:54:00,39.6,30.9,30.08,NW,324,3.0,16.0,71,0.00,,,0.00,meteohub,2013-03-07 15:54:00,
2013-03-07 10:59:00,39.7,30.4,30.08,NE,46,8.0,16.0,69,0.00,,,0.00,meteohub,2013-03-07 15:59:00,
2013-03-07 11:04:00,39.7,30.4,30.08,NNE,15,5.0,16.0,69,0.00,,,0.00,meteohub,2013-03-07 16:04:00,
2013-03-07 11:09:00,39.6,30.6,30.08,NNE,19,5.0,18.0,70,0.00,,,0.00,meteohub,2013-03-07 16:09:00,
2013-03-07 11:14:00,39.9,30.6,30.08,NNE,29,6.0,18.0,69,0.00,,,0.00,meteohub,2013-03-07 16:14:00,
2013-03-07 11:19:00,39.7,30.4,30.08,NE,53,8.0,18.0,69,0.00,,,0.00,meteohub,2013-03-07 16:19:00,
2013-03-07 11:24:00,39.9,30.6,30.08,NNE,22,6.0,16.0,69,0.00,,,0.00,meteohub,2013-03-07 16:24:00,
2013-03-07 11:29:00,40.5,30.7,30.08,NE,39,6.0,11.0,68,0.00,,,0.00,meteohub,2013-03-07 16:29:00,
2013-03-07 11:34:00,39.6,31.3,30.08,ENE,68,11.0,12.0,72,0.00,,,0.00,meteohub,2013-03-07 16:34:00,
2013-03-07 11:39:00,39.2,31.6,30.08,NNE,31,11.0,15.0,74,0.00,,,0.00,meteohub,2013-03-07 16:39:00,
2013-03-07 11:44:00,39.0,31.5,30.09,North,357,8.0,15.0,74,0.00,,,0.00,meteohub,2013-03-07 16:44:00,
2013-03-07 11:49:00,39.0,32.2,30.09,NW,323,5.0,15.0,76,0.00,,,0.00,meteohub,2013-03-07 16:49:00,
2013-03-07 11:54:00,39.4,32.7,30.08,NNW,338,5.0,14.0,77,0.00,,,0.00,meteohub,2013-03-07 16:54:00,
2013-03-07 11:59:00,39.4,32.2,30.08,NE,51,9.0,11.0,75,0.00,,,0.00,meteohub,2013-03-07 16:59:00,
2013-03-07 12:04:00,39.2,32.4,30.08,NE,41,7.0,13.0,76,0.00,,,0.00,meteohub,2013-03-07 17:04:00,
2013-03-07 12:09:00,39.6,32.5,30.08,North,354,4.0,13.0,76,0.00,,,0.00,meteohub,2013-03-07 17:09:00,
2013-03-07 12:14:00,39.7,32.7,30.08,NNE,32,3.0,13.0,76,0.00,,,0.00,meteohub,2013-03-07 17:14:00,
2013-03-07 12:20:00,39.9,32.4,30.08,NW,317,6.0,11.0,74,0.00,,,0.00,meteohub,2013-03-07 17:20:00,
2013-03-07 12:25:00,40.1,32.5,30.07,NNE,25,4.0,10.0,74,0.00,,,0.00,meteohub,2013-03-07 17:25:00,
2013-03-07 12:30:00,40.5,32.5,30.07,WNW,295,6.0,8.0,73,0.00,,,0.00,meteohub,2013-03-07 17:30:00,
2013-03-07 12:35:00,40.5,32.2,30.08,NNW,336,3.0,8.0,72,0.00,,,0.00,meteohub,2013-03-07 17:35:00,
2013-03-07 12:40:00,40.6,32.4,30.08,North,356,6.0,10.0,72,0.00,,,0.00,meteohub,2013-03-07 17:40:00,
2013-03-07 12:45:00,40.6,32.0,30.08,West,267,2.0,11.0,71,0.00,,,0.00,meteohub,2013-03-07 17:45:00,
2013-03-07 12:50:00,40.5,32.2,30.07,ENE,74,9.0,11.0,72,0.00,,,0.00,meteohub,2013-03-07 17:50:00,
2013-03-07 12:55:00,40.6,32.4,30.08,NNE,20,3.0,11.0,72,0.00,,,0.00,meteohub,2013-03-07 17:55:00,
2013-03-07 13:00:00,40.6,32.7,30.07,NNE,22,3.0,10.0,73,0.00,,,0.00,meteohub,2013-03-07 18:00:00,
2013-03-07 13:05:00,40.6,33.1,30.07,NNE,20,4.0,12.0,74,0.00,,,0.00,meteohub,2013-03-07 18:05:00,
2013-03-07 13:10:00,40.8,33.3,30.08,NE,34,2.0,12.0,74,0.00,,,0.00,meteohub,2013-03-07 18:10:00,
2013-03-07 13:15:00,40.8,32.9,30.08,ENE,70,13.0,13.0,73,0.00,,,0.00,meteohub,2013-03-07 18:15:00,
2013-03-07 13:20:00,40.5,32.5,30.08,ENE,77,8.0,17.0,73,0.00,,,0.00,meteohub,2013-03-07 18:20:00,
2013-03-07 13:25:00,40.5,32.9,30.08,North,1,3.0,17.0,74,0.00,,,0.00,meteohub,2013-03-07 18:25:00,
2013-03-07 13:30:00,40.3,32.7,30.08,NNE,25,4.0,17.0,74,0.00,,,0.00,meteohub,2013-03-07 18:30:00,
2013-03-07 13:35:00,40.5,33.1,30.07,NNE,25,4.0,10.0,75,0.00,,,0.00,meteohub,2013-03-07 18:35:00,
2013-03-07 13:40:00,40.3,33.6,30.07,NNE,15,5.0,9.0,77,0.00,,,0.00,meteohub,2013-03-07 18:40:00,
2013-03-07 13:45:00,39.9,34.0,30.07,North,4,4.0,9.0,79,0.00,,,0.00,meteohub,2013-03-07 18:45:00,
2013-03-07 13:50:00,39.7,34.2,30.07,NNE,23,6.0,9.0,80,0.00,,,0.00,meteohub,2013-03-07 18:50:00,
2013-03-07 13:56:00,39.6,34.5,30.07,ENE,58,4.0,9.0,82,0.00,,,0.00,meteohub,2013-03-07 18:56:00,
2013-03-07 14:01:00,39.4,34.7,30.08,NE,44,2.0,9.0,83,0.00,,,0.00,meteohub,2013-03-07 19:01:00,
2013-03-07 14:06:00,39.4,34.9,30.08,NE,34,1.0,9.0,84,0.00,,,0.00,meteohub,2013-03-07 19:06:00,
2013-03-07 14:11:00,39.4,34.9,30.08,North,355,2.0,10.0,84,0.00,,,0.00,meteohub,2013-03-07 19:11:00,
2013-03-07 14:16:00,39.6,35.4,30.08,NNE,22,5.0,10.0,85,0.00,,,0.00,meteohub,2013-03-07 19:16:00,
2013-03-07 14:21:00,39.6,35.4,30.08,NE,46,2.0,10.0,85,0.00,,,0.00,meteohub,2013-03-07 19:21:00,
2013-03-07 14:27:00,39.6,35.4,30.08,NE,50,3.0,7.0,85,0.00,,,0.00,meteohub,2013-03-07 19:27:00,
2013-03-07 14:32:00,39.7,36.0,30.08,NE,54,7.0,7.0,86,0.00,,,0.00,meteohub,2013-03-07 19:32:00,
2013-03-07 14:37:00,39.4,35.2,30.08,NNW,328,2.0,10.0,85,0.00,,,0.00,meteohub,2013-03-07 19:37:00,
2013-03-07 14:42:00,39.6,36.0,30.08,NNW,336,1.0,10.0,87,0.00,,,0.00,meteohub,2013-03-07 19:42:00,
2013-03-07 14:48:00,39.9,36.1,30.09,NNW,338,2.0,10.0,86,0.00,,,0.00,meteohub,2013-03-07 19:48:00,
2013-03-07 14:53:00,39.9,36.1,30.09,ENE,58,3.0,8.0,86,0.00,,,0.00,meteohub,2013-03-07 19:53:00,
2013-03-07 14:58:00,39.9,35.8,30.09,NE,44,2.0,8.0,85,0.00,,,0.00,meteohub,2013-03-07 19:58:00,
2013-03-07 15:03:00,39.6,35.4,30.09,ENE,59,4.0,9.0,85,0.00,,,0.00,meteohub,2013-03-07 20:03:00,
2013-03-07 15:08:00,39.2,35.4,30.09,NE,50,7.0,9.0,86,0.00,,,0.00,meteohub,2013-03-07 20:08:00,
2013-03-07 15:13:00,39.0,35.8,30.09,NW,308,0.0,9.0,88,0.01,,,0.01,meteohub,2013-03-07 20:13:00,
2013-03-07 15:18:00,39.2,36.0,30.09,NNW,338,6.0,9.0,88,0.01,,,0.01,meteohub,2013-03-07 20:18:00,
2013-03-07 15:23:00,39.0,35.8,30.09,NNE,22,3.0,7.0,88,0.01,,,0.01,meteohub,2013-03-07 20:23:00,
2013-03-07 15:28:00,39.0,36.1,30.09,West,281,1.0,7.0,89,0.01,,,0.01,meteohub,2013-03-07 20:28:00,
2013-03-07 15:33:00,39.2,36.3,30.10,NW,312,5.0,7.0,89,0.01,,,0.01,meteohub,2013-03-07 20:33:00,
2013-03-07 15:38:00,39.0,36.1,30.10,NE,41,1.0,8.0,89,0.01,,,0.01,meteohub,2013-03-07 20:38:00,
2013-03-07 15:43:00,39.0,36.1,30.10,NNW,337,4.0,8.0,89,0.02,,,0.02,meteohub,2013-03-07 20:43:00,
2013-03-07 15:48:00,38.8,36.0,30.10,West,277,2.0,8.0,89,0.02,,,0.02,meteohub,2013-03-07 20:48:00,
2013-03-07 15:53:00,38.8,36.0,30.10,NNE,18,4.0,8.0,89,0.02,,,0.02,meteohub,2013-03-07 20:53:00,
2013-03-07 15:58:00,38.8,35.6,30.10,NE,50,4.0,9.0,88,0.02,,,0.02,meteohub,2013-03-07 20:58:00,
2013-03-07 16:03:00,38.7,35.8,30.10,North,357,5.0,13.0,89,0.02,,,0.02,meteohub,2013-03-07 21:03:00,
2013-03-07 16:08:00,38.7,36.0,30.10,ENE,62,4.0,13.0,90,0.02,,,0.02,meteohub,2013-03-07 21:08:00,
2013-03-07 16:13:00,38.5,35.8,30.10,NNE,32,4.0,13.0,90,0.01,,,0.02,meteohub,2013-03-07 21:13:00,
2013-03-07 16:18:00,38.5,35.8,30.10,NNE,25,2.0,8.0,90,0.02,,,0.03,meteohub,2013-03-07 21:18:00,
2013-03-07 16:23:00,38.5,35.8,30.10,NNW,347,3.0,8.0,90,0.02,,,0.03,meteohub,2013-03-07 21:23:00,
2013-03-07 16:28:00,38.1,35.4,30.10,North,11,3.0,8.0,90,0.02,,,0.03,meteohub,2013-03-07 21:28:00,
2013-03-07 16:33:00,38.1,35.4,30.10,North,5,2.0,8.0,90,0.02,,,0.03,meteohub,2013-03-07 21:33:00,
2013-03-07 16:38:00,37.9,35.6,30.11,ENE,59,4.0,7.0,91,0.02,,,0.03,meteohub,2013-03-07 21:38:00,
2013-03-07 16:43:00,37.9,35.6,30.11,NE,50,2.0,7.0,91,0.02,,,0.04,meteohub,2013-03-07 21:43:00,
2013-03-07 16:48:00,37.8,35.4,30.11,ENE,57,2.0,7.0,91,0.02,,,0.04,meteohub,2013-03-07 21:48:00,
2013-03-07 16:53:00,37.8,35.4,30.11,NW,315,3.0,7.0,91,0.02,,,0.04,meteohub,2013-03-07 21:53:00,
2013-03-07 16:58:00,37.8,35.6,30.11,NW,315,1.0,6.0,92,0.02,,,0.04,meteohub,2013-03-07 21:58:00,
2013-03-07 17:03:00,37.8,35.6,30.11,North,6,2.0,7.0,92,0.03,,,0.05,meteohub,2013-03-07 22:03:00,
2013-03-07 17:08:00,37.8,35.6,30.11,NNW,345,2.0,8.0,92,0.03,,,0.05,meteohub,2013-03-07 22:08:00,
2013-03-07 17:13:00,37.8,35.4,30.12,NW,315,8.0,8.0,91,0.03,,,0.05,meteohub,2013-03-07 22:13:00,
2013-03-07 17:18:00,37.6,34.9,30.12,NW,317,3.0,10.0,90,0.02,,,0.05,meteohub,2013-03-07 22:18:00,
2013-03-07 17:23:00,37.4,34.7,30.12,WNW,301,3.0,10.0,90,0.02,,,0.05,meteohub,2013-03-07 22:23:00,
2013-03-07 17:28:00,37.2,34.3,30.12,NNE,32,5.0,10.0,89,0.02,,,0.05,meteohub,2013-03-07 22:28:00,
2013-03-07 17:33:00,37.0,34.2,30.12,NW,322,7.0,8.0,89,0.02,,,0.05,meteohub,2013-03-07 22:33:00,
2013-03-07 17:38:00,36.9,34.0,30.12,NNE,13,2.0,14.0,89,0.02,,,0.05,meteohub,2013-03-07 22:38:00,
2013-03-07 17:43:00,36.9,34.2,30.12,North,11,4.0,14.0,90,0.01,,,0.05,meteohub,2013-03-07 22:43:00,
2013-03-07 17:49:00,36.7,34.0,30.12,ENE,59,2.0,14.0,90,0.01,,,0.05,meteohub,2013-03-07 22:49:00,
2013-03-07 17:54:00,36.3,34.0,30.12,NW,305,1.0,10.0,91,0.01,,,0.05,meteohub,2013-03-07 22:54:00,
2013-03-07 17:59:00,36.3,34.0,30.12,NNE,13,5.0,8.0,91,0.01,,,0.05,meteohub,2013-03-07 22:59:00,
2013-03-07 18:04:00,36.1,34.0,30.13,WSW,249,3.0,7.0,92,0.00,,,0.05,meteohub,2013-03-07 23:04:00,
2013-03-07 18:09:00,36.0,33.8,30.13,North,349,4.0,7.0,92,0.01,,,0.06,meteohub,2013-03-07 23:09:00,
2013-03-07 18:14:00,36.0,33.8,30.13,NW,316,3.0,7.0,92,0.01,,,0.06,meteohub,2013-03-07 23:14:00,
2013-03-07 18:19:00,35.8,34.0,30.13,NNE,13,1.0,6.0,93,0.01,,,0.06,meteohub,2013-03-07 23:19:00,
2013-03-07 18:24:00,35.8,34.0,30.13,North,5,2.0,6.0,93,0.01,,,0.06,meteohub,2013-03-07 23:24:00,
2013-03-07 18:29:00,35.8,34.0,30.13,NW,319,2.0,6.0,93,0.01,,,0.06,meteohub,2013-03-07 23:29:00,
2013-03-07 18:34:00,35.8,34.0,30.13,NNE,13,4.0,5.0,93,0.01,,,0.06,meteohub,2013-03-07 23:34:00,
2013-03-07 18:39:00,35.8,34.0,30.13,NW,315,1.0,5.0,93,0.01,,,0.06,meteohub,2013-03-07 23:39:00,
2013-03-07 18:44:00,35.6,33.4,30.13,NW,314,6.0,7.0,92,0.01,,,0.06,meteohub,2013-03-07 23:44:00,
2013-03-07 18:49:00,35.6,33.8,30.13,WNW,283,3.0,7.0,93,0.01,,,0.06,meteohub,2013-03-07 23:49:00,
2013-03-07 18:54:00,35.4,33.3,30.13,NNW,328,1.0,7.0,92,0.01,,,0.06,meteohub,2013-03-07 23:54:00,
2013-03-07 18:59:00,35.4,33.6,30.14,NE,55,1.0,7.0,93,0.01,,,0.06,meteohub,2013-03-07 23:59:00,
2013-03-07 19:04:00,35.4,33.6,30.13,North,8,2.0,6.0,93,0.01,,,0.06,meteohub,2013-03-08 00:04:00,
2013-03-07 19:09:00,35.4,33.6,30.13,NNW,347,2.0,6.0,93,0.00,,,0.06,meteohub,2013-03-08 00:09:00,
2013-03-07 19:14:00,35.4,33.6,30.13,NNW,339,1.0,7.0,93,0.01,,,0.07,meteohub,2013-03-08 00:14:00,
2013-03-07 19:19:00,35.4,33.6,30.13,NNE,25,3.0,7.0,93,0.01,,,0.07,meteohub,2013-03-08 00:19:00,
2013-03-07 19:24:00,35.4,33.6,30.14,North,5,3.0,7.0,93,0.01,,,0.07,meteohub,2013-03-08 00:24:00,
2013-03-07 19:29:00,35.4,33.6,30.14,NNE,32,2.0,7.0,93,0.01,,,0.07,meteohub,2013-03-08 00:29:00,
2013-03-07 19:34:00,35.4,33.6,30.14,NW,317,2.0,6.0,93,0.01,,,0.07,meteohub,2013-03-08 00:34:00,
2013-03-07 19:39:00,35.2,33.4,30.13,NE,41,2.0,6.0,93,0.01,,,0.07,meteohub,2013-03-08 00:39:00,
2013-03-07 19:44:00,35.2,33.4,30.13,NW,325,1.0,6.0,93,0.01,,,0.07,meteohub,2013-03-08 00:44:00,
2013-03-07 19:49:00,35.1,33.3,30.13,North,9,2.0,6.0,93,0.01,,,0.07,meteohub,2013-03-08 00:49:00,
2013-03-07 19:55:00,35.1,33.3,30.13,NE,46,1.0,4.0,93,0.01,,,0.07,meteohub,2013-03-08 00:55:00,
2013-03-07 20:00:00,35.1,33.4,30.13,NNW,332,2.0,4.0,94,0.01,,,0.07,meteohub,2013-03-08 01:00:00,
2013-03-07 20:05:00,34.9,33.3,30.13,NNW,331,1.0,4.0,94,0.01,,,0.07,meteohub,2013-03-08 01:05:00,
2013-03-07 20:10:00,34.9,33.3,30.13,NW,311,3.0,4.0,94,0.01,,,0.07,meteohub,2013-03-08 01:10:00,
2013-03-07 20:15:00,34.9,33.3,30.13,NNW,328,1.0,5.0,94,0.00,,,0.07,meteohub,2013-03-08 01:15:00,
2013-03-07 20:20:00,35.1,33.4,30.13,NW,322,3.0,5.0,94,0.00,,,0.07,meteohub,2013-03-08 01:20:00,
2013-03-07 20:25:00,35.1,33.4,30.13,NNW,328,0.0,4.0,94,0.01,,,0.08,meteohub,2013-03-08 01:25:00,
2013-03-07 20:30:00,35.1,33.4,30.13,NNW,336,0.0,4.0,94,0.01,,,0.08,meteohub,2013-03-08 01:30:00,
2013-03-07 20:35:00,35.1,33.4,30.13,North,353,0.0,4.0,94,0.01,,,0.08,meteohub,2013-03-08 01:35:00,
2013-03-07 20:40:00,35.1,33.4,30.13,North,1,1.0,4.0,94,0.01,,,0.08,meteohub,2013-03-08 01:40:00,
2013-03-07 20:45:00,35.2,33.6,30.12,North,1,1.0,4.0,94,0.01,,,0.08,meteohub,2013-03-08 01:45:00,
2013-03-07 20:50:00,35.2,33.6,30.13,NNE,13,2.0,4.0,94,0.01,,,0.08,meteohub,2013-03-08 01:50:00,
2013-03-07 20:55:00,35.2,33.6,30.13,NNW,334,2.0,3.0,94,0.01,,,0.08,meteohub,2013-03-08 01:55:00,
2013-03-07 21:00:00,35.2,33.6,30.13,NNE,26,0.0,4.0,94,0.01,,,0.08,meteohub,2013-03-08 02:00:00,
2013-03-07 21:05:00,35.2,33.6,30.13,North,358,0.0,4.0,94,0.01,,,0.08,meteohub,2013-03-08 02:05:00,
2013-03-07 21:10:00,35.2,33.6,30.12,NE,46,2.0,4.0,94,0.01,,,0.08,meteohub,2013-03-08 02:10:00,
2013-03-07 21:15:00,35.2,33.6,30.12,WNW,287,1.0,3.0,94,0.01,,,0.08,meteohub,2013-03-08 02:15:00,
2013-03-07 21:20:00,35.2,33.6,30.12,WNW,294,1.0,3.0,94,0.01,,,0.08,meteohub,2013-03-08 02:20:00,
2013-03-07 21:25:00,35.2,33.6,30.12,NNW,338,2.0,5.0,94,0.00,,,0.08,meteohub,2013-03-08 02:25:00,
2013-03-07 21:30:00,35.1,33.4,30.12,NNW,334,2.0,5.0,94,0.00,,,0.08,meteohub,2013-03-08 02:30:00,
2013-03-07 21:35:00,35.1,33.4,30.12,NW,323,2.0,5.0,94,0.00,,,0.08,meteohub,2013-03-08 02:35:00,
2013-03-07 21:40:00,35.1,33.4,30.12,WNW,287,2.0,5.0,94,0.00,,,0.08,meteohub,2013-03-08 02:40:00,
2013-03-07 21:45:00,34.9,33.3,30.12,NNE,25,0.0,6.0,94,0.00,,,0.08,meteohub,2013-03-08 02:45:00,
2013-03-07 21:50:00,34.9,33.3,30.12,NW,316,1.0,6.0,94,0.00,,,0.08,meteohub,2013-03-08 02:50:00,
2013-03-07 21:55:00,34.9,33.3,30.12,NNW,333,0.0,6.0,94,0.00,,,0.08,meteohub,2013-03-08 02:55:00,
2013-03-07 22:00:00,34.9,33.3,30.12,NNW,337,1.0,3.0,94,0.00,,,0.08,meteohub,2013-03-08 03:00:00,
2013-03-07 22:05:00,34.9,33.3,30.12,North,359,1.0,3.0,94,0.00,,,0.08,meteohub,2013-03-08 03:05:00,
2013-03-07 22:10:00,34.9,33.3,30.11,NNW,329,2.0,3.0,94,0.00,,,0.08,meteohub,2013-03-08 03:10:00,
2013-03-07 22:15:00,34.9,33.3,30.12,NW,314,1.0,5.0,94,0.00,,,0.08,meteohub,2013-03-08 03:15:00,
2013-03-07 22:20:00,34.9,33.3,30.12,NNE,20,2.0,5.0,94,0.00,,,0.08,meteohub,2013-03-08 03:20:00,
2013-03-07 22:25:00,34.9,33.3,30.12,NNE,27,3.0,6.0,94,0.00,,,0.08,meteohub,2013-03-08 03:25:00,
2013-03-07 22:30:00,34.9,33.3,30.12,NNW,335,1.0,6.0,94,0.00,,,0.08,meteohub,2013-03-08 03:30:00,
2013-03-07 22:35:00,34.7,33.1,30.12,NNE,19,2.0,6.0,94,0.00,,,0.08,meteohub,2013-03-08 03:35:00,
2013-03-07 22:40:00,34.7,33.1,30.12,NNE,12,2.0,4.0,94,0.00,,,0.08,meteohub,2013-03-08 03:40:00,
2013-03-07 22:45:00,34.7,33.1,30.12,North,4,2.0,3.0,94,0.00,,,0.08,meteohub,2013-03-08 03:45:00,
2013-03-07 22:50:00,34.5,32.9,30.12,NW,321,0.0,4.0,94,0.01,,,0.09,meteohub,2013-03-08 03:50:00,
2013-03-07 22:55:00,34.5,32.9,30.12,NNE,32,1.0,4.0,94,0.01,,,0.09,meteohub,2013-03-08 03:55:00,
2013-03-07 23:00:00,34.5,32.9,30.12,NNW,342,1.0,4.0,94,0.01,,,0.09,meteohub,2013-03-08 04:00:00,
2013-03-07 23:05:00,34.5,32.9,30.12,NNE,12,1.0,3.0,94,0.01,,,0.09,meteohub,2013-03-08 04:05:00,
2013-03-07 23:10:00,34.5,32.9,30.12,NNE,25,3.0,4.0,94,0.01,,,0.09,meteohub,2013-03-08 04:10:00,
2013-03-07 23:15:00,34.3,32.7,30.12,NNW,333,3.0,8.0,94,0.01,,,0.09,meteohub,2013-03-08 04:15:00,
2013-03-07 23:21:00,34.3,32.7,30.12,North,8,1.0,8.0,94,0.01,,,0.09,meteohub,2013-03-08 04:21:00,
2013-03-07 23:26:00,34.3,32.7,30.12,NNW,345,1.0,8.0,94,0.01,,,0.09,meteohub,2013-03-08 04:26:00,
2013-03-07 23:31:00,34.3,32.7,30.12,WNW,293,2.0,5.0,94,0.01,,,0.09,meteohub,2013-03-08 04:31:00,
2013-03-07 23:36:00,34.3,32.7,30.12,NW,323,0.0,4.0,94,0.01,,,0.09,meteohub,2013-03-08 04:36:00,
2013-03-07 23:41:00,34.2,32.5,30.12,NNW,333,0.0,4.0,94,0.01,,,0.09,meteohub,2013-03-08 04:41:00,
2013-03-07 23:46:00,34.2,32.5,30.12,NW,307,2.0,4.0,94,0.01,,,0.09,meteohub,2013-03-08 04:46:00,
2013-03-07 23:51:00,34.2,32.5,30.12,NW,326,1.0,3.0,94,0.00,,,0.09,meteohub,2013-03-08 04:51:00,
2013-03-07 23:56:00,34.0,32.4,30.12,NW,322,1.0,4.0,94,0.00,,,0.09,meteohub,2013-03-08 04:56:00,